Weather History for KEWB - February, 2014

Change the Weather History Date:

Saturday, February 8, 2014

  Actual Average Record
Temperature  
Mean Temperature 22 °F -  
Max Temperature 28 °F 35 °F 55 °F (2009)
Min Temperature 17 °F 23 °F 3 °F (1963)
Degree Days  
Heating Degree Days 42    
Moisture  
Dew Point 7 °F    
Average Humidity 52    
Maximum Humidity 81    
Minimum Humidity 33    
Precipitation  
Precipitation 0.00 in - - ()
Sea Level Pressure  
Sea Level Pressure 30.22 in    
Wind  
Wind Speed 5 mph (West)    
Max Wind Speed 10 mph    
Max Gust Speed -    
Visibility 10 miles    
Events      
Averages and records for this station are not official NWS values.
T = Trace of Precipitation, MM = Missing Value Source: NWS Daily Summary

Daily Weather History Graph

Daily Weather History Graph

Search for Another Location

Airport or City:

Trip Planner

Search our weather history database for the weather conditions in past years. The results will help you decide how hot, cold, wet, or windy it might be!

Date:

Astronomy

Feb. 08, 2014 Rise Set
Actual Time 6:48 AM EST 5:08 PM EST
Civil Twilight 6:19 AM EST 5:37 PM EST
Nautical Twilight 5:46 AM EST 6:10 PM EST
Astronomical Twilight 5:14 AM EST 6:42 PM EST
Moon 11:58 AM EST (2/8) 1:59 AM EST (2/8)
Length of Visible Light 11h 18m
Length of Day
10h 20m
Waxing Gibbous, 68% of the Moon is Illuminated
Feb 8
Waxing Gibbous
Feb 14
Full
Feb 22
Last Quarter
Mar 1
New
Mar 8
First Quarter

Hourly Weather History & Observations

Time (EST) Temp. Windchill Dew Point Humidity Pressure Visibility Wind Dir Wind Speed Gust Speed Precip Events Conditions
12:53 AM 21.0 °F 12.4 °F 14.0 °F 74% 30.22 in 10.0 mi West 6.9 mph - N/A   Clear
1:53 AM 21.0 °F 13.4 °F 14.0 °F 74% 30.23 in 10.0 mi West 5.8 mph - N/A   Clear
2:53 AM 17.1 °F 11.7 °F 12.0 °F 81% 30.24 in 10.0 mi West 3.5 mph - N/A   Clear
3:53 AM 18.0 °F 12.7 °F 12.9 °F 81% 30.26 in 10.0 mi West 3.5 mph - N/A   Clear
4:53 AM 18.0 °F 8.7 °F 8.1 °F 65% 30.27 in 10.0 mi West 6.9 mph - N/A   Clear
5:53 AM 18.0 °F 8.7 °F 5.0 °F 57% 30.28 in 10.0 mi WNW 6.9 mph - N/A   Clear
6:53 AM 18.0 °F - 3.0 °F 52% 30.29 in 10.0 mi Calm Calm - N/A   Clear
7:53 AM 19.0 °F 12.3 °F 1.9 °F 47% 30.30 in 10.0 mi NW 4.6 mph - N/A   Clear
8:53 AM 21.9 °F 12.5 °F 1.0 °F 40% 30.30 in 10.0 mi NW 8.1 mph - N/A   Clear
9:53 AM 21.9 °F 15.7 °F 1.9 °F 42% 30.29 in 10.0 mi Variable 4.6 mph - N/A   Clear
10:53 AM 24.1 °F 13.7 °F 1.0 °F 37% 30.28 in 10.0 mi WNW 10.4 mph - N/A   Clear
11:53 AM 26.1 °F 16.8 °F 1.9 °F 35% 30.24 in 10.0 mi West 9.2 mph - N/A   Clear
12:53 PM 28.0 °F 19.3 °F 3.0 °F 34% 30.19 in 10.0 mi West 9.2 mph - N/A   Clear
1:53 PM 28.0 °F 18.6 °F 3.9 °F 36% 30.19 in 10.0 mi West 10.4 mph - N/A   Clear
2:53 PM 28.0 °F 20.0 °F 1.9 °F 33% 30.18 in 10.0 mi West 8.1 mph - N/A   Clear
3:53 PM 28.9 °F 20.4 °F 3.9 °F 35% 30.21 in 10.0 mi SW 9.2 mph - N/A   Scattered Clouds
4:53 PM 28.0 °F 21.7 °F 12.9 °F 53% 30.20 in 10.0 mi South 5.8 mph - N/A   Overcast
5:53 PM 28.0 °F - 10.9 °F 49% 30.19 in 10.0 mi Calm Calm - N/A   Mostly Cloudy
6:53 PM 26.1 °F 21.9 °F 12.9 °F 58% 30.17 in 10.0 mi SW 3.5 mph - N/A   Overcast
7:53 PM 26.1 °F - 14.0 °F 60% 30.15 in 10.0 mi Calm Calm - N/A   Overcast
8:53 PM 26.1 °F - 14.0 °F 60% 30.14 in 10.0 mi Calm Calm - N/A   Overcast
9:53 PM 26.1 °F - 9.0 °F 49% 30.14 in 10.0 mi Calm Calm - N/A   Overcast
10:53 PM 26.1 °F - 8.1 °F 47% 30.12 in 10.0 mi Calm Calm - N/A   Overcast
11:53 PM 25.0 °F - 6.1 °F 45% 30.11 in 10.0 mi Calm Calm - N/A   Overcast